Time,TemperatureF,DewpointF,PressureIn,WindDirection,WindDirectionDegrees,WindSpeedMPH,WindSpeedGustMPH,Humidity,HourlyPrecipIn,Conditions,Clouds,dailyrainin,SoftwareType,DateUTC
2013-01-23 00:03:00,14.0,-5.8,30.22,SE,135,2.0,4.0,40,0.00,,,0.00,meteohub,2013-01-23 07:03:00,
2013-01-23 00:08:00,14.0,-6.9,30.22,SE,135,2.0,4.0,38,0.00,,,0.00,meteohub,2013-01-23 07:08:00,
2013-01-23 00:13:00,14.0,-6.9,30.22,SE,135,2.0,4.0,38,0.00,,,0.00,meteohub,2013-01-23 07:13:00,
2013-01-23 00:18:00,14.0,-6.9,30.23,East,90,3.0,4.0,38,0.00,,,0.00,meteohub,2013-01-23 07:18:00,
2013-01-23 00:23:00,14.2,-6.7,30.22,SW,225,2.0,3.0,38,0.00,,,0.00,meteohub,2013-01-23 07:23:00,
2013-01-23 00:29:00,14.0,-7.4,30.22,SE,135,2.0,4.0,37,0.00,,,0.00,meteohub,2013-01-23 07:29:00,
2013-01-23 00:34:00,13.6,-6.7,30.22,SE,135,2.0,4.0,39,0.00,,,0.00,meteohub,2013-01-23 07:34:00,
2013-01-23 00:39:00,13.5,-5.8,30.22,SE,135,3.0,4.0,41,0.00,,,0.00,meteohub,2013-01-23 07:39:00,
2013-01-23 00:44:00,13.3,-6.0,30.22,SE,135,3.0,3.0,41,0.00,,,0.00,meteohub,2013-01-23 07:44:00,
2013-01-23 00:49:00,13.1,-6.2,30.22,SE,135,2.0,3.0,41,0.00,,,0.00,meteohub,2013-01-23 07:49:00,
2013-01-23 00:54:00,13.3,-6.0,30.22,SE,135,2.0,4.0,41,0.00,,,0.00,meteohub,2013-01-23 07:54:00,
2013-01-23 01:00:00,13.1,-6.2,30.22,SE,135,3.0,4.0,41,0.00,,,0.00,meteohub,2013-01-23 08:00:00,
2013-01-23 01:05:00,13.1,-6.2,30.22,SE,135,3.0,4.0,41,0.00,,,0.00,meteohub,2013-01-23 08:05:00,
2013-01-23 01:10:00,13.5,-5.8,30.22,SE,135,2.0,4.0,41,0.00,,,0.00,meteohub,2013-01-23 08:10:00,
2013-01-23 01:15:00,13.3,-6.0,30.22,SE,135,4.0,4.0,41,0.00,,,0.00,meteohub,2013-01-23 08:15:00,
2013-01-23 01:20:00,13.5,-5.8,30.22,SE,135,2.0,4.0,41,0.00,,,0.00,meteohub,2013-01-23 08:20:00,
2013-01-23 01:25:00,13.5,-6.3,30.22,SE,135,2.0,4.0,40,0.00,,,0.00,meteohub,2013-01-23 08:25:00,
2013-01-23 01:30:00,13.5,-5.8,30.22,SE,135,0.0,4.0,41,0.00,,,0.00,meteohub,2013-01-23 08:30:00,
2013-01-23 01:36:00,13.3,-6.0,30.22,SE,135,2.0,3.0,41,0.00,,,0.00,meteohub,2013-01-23 08:36:00,
2013-01-23 01:41:00,12.9,-6.3,30.22,SE,135,0.0,3.0,41,0.00,,,0.00,meteohub,2013-01-23 08:41:00,
2013-01-23 01:47:00,12.7,-6.5,30.22,SE,135,3.0,3.0,41,0.00,,,0.00,meteohub,2013-01-23 08:47:00,
2013-01-23 01:52:00,12.6,-6.7,30.22,SE,135,2.0,4.0,41,0.00,,,0.00,meteohub,2013-01-23 08:52:00,
2013-01-23 01:57:00,12.6,-6.2,30.22,SE,135,3.0,4.0,42,0.00,,,0.00,meteohub,2013-01-23 08:57:00,
2013-01-23 02:02:00,12.7,-6.0,30.22,SE,135,1.0,4.0,42,0.00,,,0.00,meteohub,2013-01-23 09:02:00,
2013-01-23 02:07:00,12.7,-6.5,30.22,SE,135,4.0,4.0,41,0.00,,,0.00,meteohub,2013-01-23 09:07:00,
2013-01-23 02:12:00,13.1,-6.2,30.22,West,270,1.0,4.0,41,0.00,,,0.00,meteohub,2013-01-23 09:12:00,
2013-01-23 02:17:00,13.1,-6.2,30.22,South,180,2.0,4.0,41,0.00,,,0.00,meteohub,2013-01-23 09:17:00,
2013-01-23 02:22:00,12.9,-6.3,30.22,SW,225,0.0,4.0,41,0.00,,,0.00,meteohub,2013-01-23 09:22:00,
2013-01-23 02:28:00,13.1,-7.2,30.21,SE,135,4.0,4.0,39,0.00,,,0.00,meteohub,2013-01-23 09:28:00,
2013-01-23 02:33:00,13.1,-7.2,30.22,SE,135,3.0,4.0,39,0.00,,,0.00,meteohub,2013-01-23 09:33:00,
2013-01-23 02:38:00,13.3,-7.1,30.22,SE,135,2.0,4.0,39,0.00,,,0.00,meteohub,2013-01-23 09:38:00,
2013-01-23 02:43:00,13.3,-7.6,30.22,SE,135,2.0,4.0,38,0.00,,,0.00,meteohub,2013-01-23 09:43:00,
2013-01-23 02:49:00,13.1,-7.8,30.22,SE,135,2.0,4.0,38,0.00,,,0.00,meteohub,2013-01-23 09:49:00,
2013-01-23 02:54:00,13.1,-7.8,30.22,SE,135,2.0,4.0,38,0.00,,,0.00,meteohub,2013-01-23 09:54:00,
2013-01-23 02:59:00,13.3,-7.1,30.22,SE,135,4.0,4.0,39,0.00,,,0.00,meteohub,2013-01-23 09:59:00,
2013-01-23 03:04:00,13.3,-6.5,30.21,SE,135,3.0,4.0,40,0.00,,,0.00,meteohub,2013-01-23 10:04:00,
2013-01-23 03:09:00,13.6,-6.7,30.21,South,180,1.0,4.0,39,0.00,,,0.00,meteohub,2013-01-23 10:09:00,
2013-01-23 03:14:00,13.5,-6.9,30.21,SE,135,2.0,4.0,39,0.00,,,0.00,meteohub,2013-01-23 10:14:00,
2013-01-23 03:20:00,13.6,-6.7,30.21,SE,135,4.0,4.0,39,0.00,,,0.00,meteohub,2013-01-23 10:20:00,
2013-01-23 03:25:00,14.2,-6.7,30.21,North,0,2.0,4.0,38,0.00,,,0.00,meteohub,2013-01-23 10:25:00,
2013-01-23 03:30:00,14.0,-7.4,30.21,SE,135,3.0,4.0,37,0.00,,,0.00,meteohub,2013-01-23 10:30:00,
2013-01-23 03:35:00,14.0,-6.9,30.21,SE,135,2.0,4.0,38,0.00,,,0.00,meteohub,2013-01-23 10:35:00,
2013-01-23 03:40:00,13.8,-6.5,30.21,West,270,1.0,4.0,39,0.00,,,0.00,meteohub,2013-01-23 10:40:00,
2013-01-23 03:46:00,13.8,-6.0,30.21,SE,135,1.0,4.0,40,0.00,,,0.00,meteohub,2013-01-23 10:46:00,
2013-01-23 03:51:00,13.6,-6.2,30.21,SE,135,2.0,4.0,40,0.00,,,0.00,meteohub,2013-01-23 10:51:00,
2013-01-23 03:57:00,13.5,-5.8,30.21,SE,135,4.0,4.0,41,0.00,,,0.00,meteohub,2013-01-23 10:57:00,
2013-01-23 04:02:00,13.6,-5.6,30.21,SE,135,3.0,4.0,41,0.00,,,0.00,meteohub,2013-01-23 11:02:00,
2013-01-23 04:07:00,13.5,-5.8,30.21,SSE,158,3.0,4.0,41,0.00,,,0.00,meteohub,2013-01-23 11:07:00,
2013-01-23 04:12:00,13.5,-5.8,30.21,SE,135,2.0,4.0,41,0.00,,,0.00,meteohub,2013-01-23 11:12:00,
2013-01-23 04:17:00,13.3,-6.0,30.20,SE,135,2.0,4.0,41,0.00,,,0.00,meteohub,2013-01-23 11:17:00,
2013-01-23 04:22:00,13.3,-6.0,30.21,SE,135,3.0,4.0,41,0.00,,,0.00,meteohub,2013-01-23 11:22:00,
2013-01-23 04:27:00,13.6,-5.6,30.21,SE,135,2.0,4.0,41,0.00,,,0.00,meteohub,2013-01-23 11:27:00,
2013-01-23 04:32:00,13.8,-5.6,30.21,SE,135,1.0,4.0,41,0.00,,,0.00,meteohub,2013-01-23 11:32:00,
2013-01-23 04:37:00,13.6,-5.6,30.21,SE,135,4.0,4.0,41,0.00,,,0.00,meteohub,2013-01-23 11:37:00,
2013-01-23 04:42:00,13.6,-5.6,30.20,SE,135,3.0,4.0,41,0.00,,,0.00,meteohub,2013-01-23 11:42:00,
2013-01-23 04:47:00,14.0,-5.8,30.20,SE,135,2.0,4.0,40,0.00,,,0.00,meteohub,2013-01-23 11:47:00,
2013-01-23 04:53:00,14.0,-5.8,30.20,SE,135,0.0,4.0,40,0.00,,,0.00,meteohub,2013-01-23 11:53:00,
2013-01-23 04:58:00,13.8,-5.6,30.20,SE,135,4.0,4.0,41,0.00,,,0.00,meteohub,2013-01-23 11:58:00,
2013-01-23 05:03:00,13.8,-5.6,30.20,SE,135,2.0,4.0,41,0.00,,,0.00,meteohub,2013-01-23 12:03:00,
2013-01-23 05:08:00,13.8,-5.6,30.20,SE,135,1.0,4.0,41,0.00,,,0.00,meteohub,2013-01-23 12:08:00,
2013-01-23 05:13:00,13.8,-5.6,30.20,NW,315,2.0,4.0,41,0.00,,,0.00,meteohub,2013-01-23 12:13:00,
2013-01-23 05:19:00,13.5,-5.8,30.20,SE,135,2.0,3.0,41,0.00,,,0.00,meteohub,2013-01-23 12:19:00,
2013-01-23 05:24:00,13.5,-5.8,30.20,SE,135,2.0,3.0,41,0.00,,,0.00,meteohub,2013-01-23 12:24:00,
2013-01-23 05:29:00,13.3,-6.0,30.20,South,180,3.0,3.0,41,0.00,,,0.00,meteohub,2013-01-23 12:29:00,
2013-01-23 05:34:00,13.3,-6.0,30.20,SE,135,2.0,3.0,41,0.00,,,0.00,meteohub,2013-01-23 12:34:00,
2013-01-23 05:40:00,13.3,-6.0,30.20,SE,135,3.0,4.0,41,0.00,,,0.00,meteohub,2013-01-23 12:40:00,
2013-01-23 05:45:00,13.5,-5.8,30.20,SE,135,3.0,4.0,41,0.00,,,0.00,meteohub,2013-01-23 12:45:00,
2013-01-23 05:50:00,13.6,-5.6,30.20,SE,135,2.0,4.0,41,0.00,,,0.00,meteohub,2013-01-23 12:50:00,
2013-01-23 05:56:00,13.8,-5.6,30.20,SE,135,2.0,4.0,41,0.00,,,0.00,meteohub,2013-01-23 12:56:00,
2013-01-23 06:01:00,13.5,-5.8,30.20,South,180,2.0,4.0,41,0.00,,,0.00,meteohub,2013-01-23 13:01:00,
2013-01-23 06:06:00,13.6,-5.6,30.20,South,180,4.0,4.0,41,0.00,,,0.00,meteohub,2013-01-23 13:06:00,
2013-01-23 06:11:00,13.6,-5.6,30.20,SE,135,2.0,4.0,41,0.00,,,0.00,meteohub,2013-01-23 13:11:00,
2013-01-23 06:16:00,13.6,-5.6,30.21,SE,135,2.0,4.0,41,0.00,,,0.00,meteohub,2013-01-23 13:16:00,
2013-01-23 06:21:00,13.6,-5.6,30.21,West,270,1.0,4.0,41,0.00,,,0.00,meteohub,2013-01-23 13:21:00,
2013-01-23 06:26:00,13.5,-5.8,30.21,South,180,2.0,3.0,41,0.00,,,0.00,meteohub,2013-01-23 13:26:00,
2013-01-23 06:31:00,13.5,-5.4,30.21,SE,135,2.0,3.0,42,0.00,,,0.00,meteohub,2013-01-23 13:31:00,
2013-01-23 06:36:00,13.5,-5.4,30.21,SE,135,2.0,3.0,42,0.00,,,0.00,meteohub,2013-01-23 13:36:00,
2013-01-23 06:42:00,13.6,-5.6,30.21,SSW,203,4.0,4.0,41,0.00,,,0.00,meteohub,2013-01-23 13:42:00,
2013-01-23 06:47:00,13.8,-5.6,30.21,SE,135,4.0,4.0,41,0.00,,,0.00,meteohub,2013-01-23 13:47:00,
2013-01-23 06:52:00,13.8,-5.6,30.22,South,180,4.0,4.0,41,0.00,,,0.00,meteohub,2013-01-23 13:52:00,
2013-01-23 06:57:00,13.8,-5.6,30.21,SE,135,2.0,4.0,41,0.00,,,0.00,meteohub,2013-01-23 13:57:00,
2013-01-23 07:02:00,13.8,-5.6,30.22,SE,135,3.0,4.0,41,0.00,,,0.00,meteohub,2013-01-23 14:02:00,
2013-01-23 07:07:00,13.8,-5.6,30.22,SE,135,3.0,4.0,41,0.00,,,0.00,meteohub,2013-01-23 14:07:00,
2013-01-23 07:12:00,14.2,-5.8,30.22,SE,135,3.0,4.0,40,0.00,,,0.00,meteohub,2013-01-23 14:12:00,
2013-01-23 07:17:00,14.2,-5.8,30.22,SE,135,2.0,4.0,40,0.00,,,0.00,meteohub,2013-01-23 14:17:00,
2013-01-23 07:22:00,14.4,-5.6,30.22,NW,315,3.0,4.0,40,0.00,,,0.00,meteohub,2013-01-23 14:22:00,
2013-01-23 07:27:00,14.4,-6.7,30.22,SE,135,3.0,4.0,38,0.00,,,0.00,meteohub,2013-01-23 14:27:00,
2013-01-23 07:32:00,14.4,-7.2,30.22,West,270,1.0,5.0,37,0.00,,,0.00,meteohub,2013-01-23 14:32:00,
2013-01-23 07:37:00,14.5,-7.1,30.22,SE,135,2.0,5.0,37,0.00,,,0.00,meteohub,2013-01-23 14:37:00,
2013-01-23 07:42:00,14.4,-7.2,30.22,North,0,2.0,5.0,37,0.00,,,0.00,meteohub,2013-01-23 14:42:00,
2013-01-23 07:47:00,14.4,-6.7,30.22,SE,135,2.0,4.0,38,0.00,,,0.00,meteohub,2013-01-23 14:47:00,
2013-01-23 07:52:00,14.5,-6.0,30.22,SE,135,2.0,4.0,39,0.00,,,0.00,meteohub,2013-01-23 14:52:00,
2013-01-23 07:57:00,14.4,-5.6,30.22,SE,135,2.0,4.0,40,0.00,,,0.00,meteohub,2013-01-23 14:57:00,
2013-01-23 08:02:00,14.4,-5.6,30.22,South,180,4.0,4.0,40,0.00,,,0.00,meteohub,2013-01-23 15:02:00,
2013-01-23 08:07:00,14.5,-4.9,30.22,South,180,4.0,4.0,41,0.00,,,0.00,meteohub,2013-01-23 15:07:00,
2013-01-23 08:12:00,14.9,-4.0,30.22,SE,135,3.0,4.0,42,0.00,,,0.00,meteohub,2013-01-23 15:12:00,
2013-01-23 08:17:00,15.3,-3.6,30.21,SE,135,3.0,4.0,42,0.00,,,0.00,meteohub,2013-01-23 15:17:00,
2013-01-23 08:22:00,15.8,-4.2,30.22,SE,135,2.0,4.0,40,0.00,,,0.00,meteohub,2013-01-23 15:22:00,
2013-01-23 08:27:00,15.8,-4.2,30.21,SE,135,4.0,4.0,40,0.00,,,0.00,meteohub,2013-01-23 15:27:00,
2013-01-23 08:32:00,16.2,-4.5,30.22,SE,135,2.0,4.0,39,0.00,,,0.00,meteohub,2013-01-23 15:32:00,
2013-01-23 08:37:00,16.2,-4.5,30.22,East,90,2.0,4.0,39,0.00,,,0.00,meteohub,2013-01-23 15:37:00,
2013-01-23 08:42:00,16.2,-4.5,30.21,SE,135,2.0,4.0,39,0.00,,,0.00,meteohub,2013-01-23 15:42:00,
2013-01-23 08:47:00,16.2,-4.5,30.22,SE,135,2.0,4.0,39,0.00,,,0.00,meteohub,2013-01-23 15:47:00,
2013-01-23 08:52:00,16.2,-4.5,30.21,SE,135,2.0,4.0,39,0.00,,,0.00,meteohub,2013-01-23 15:52:00,
2013-01-23 08:57:00,16.2,-4.5,30.22,SE,135,2.0,4.0,39,0.00,,,0.00,meteohub,2013-01-23 15:57:00,
2013-01-23 09:02:00,16.5,-4.2,30.22,SE,135,3.0,4.0,39,0.00,,,0.00,meteohub,2013-01-23 16:02:00,
2013-01-23 09:07:00,16.5,-4.2,30.22,SE,135,3.0,3.0,39,0.00,,,0.00,meteohub,2013-01-23 16:07:00,
2013-01-23 09:12:00,17.4,-3.3,30.22,SE,135,2.0,3.0,39,0.00,,,0.00,meteohub,2013-01-23 16:12:00,
2013-01-23 09:17:00,18.0,-3.5,30.22,South,180,2.0,4.0,38,0.00,,,0.00,meteohub,2013-01-23 16:17:00,
2013-01-23 09:22:00,18.5,-2.9,30.22,SE,135,4.0,4.0,38,0.00,,,0.00,meteohub,2013-01-23 16:22:00,
2013-01-23 09:27:00,19.2,-3.5,30.22,SE,135,3.0,4.0,36,0.00,,,0.00,meteohub,2013-01-23 16:27:00,
2013-01-23 09:32:00,20.1,0.1,30.22,NW,315,2.0,4.0,41,0.00,,,0.00,meteohub,2013-01-23 16:32:00,
2013-01-23 09:37:00,20.8,0.3,30.22,SE,135,3.0,4.0,40,0.00,,,0.00,meteohub,2013-01-23 16:37:00,
2013-01-23 09:42:00,21.2,-0.4,30.23,SE,135,3.0,4.0,38,0.00,,,0.00,meteohub,2013-01-23 16:42:00,
2013-01-23 09:47:00,21.6,0.5,30.23,SE,135,2.0,4.0,39,0.00,,,0.00,meteohub,2013-01-23 16:47:00,
2013-01-23 09:52:00,21.7,1.0,30.23,SE,135,2.0,4.0,40,0.00,,,0.00,meteohub,2013-01-23 16:52:00,
2013-01-23 09:57:00,22.1,0.3,30.23,West,270,3.0,5.0,38,0.00,,,0.00,meteohub,2013-01-23 16:57:00,
2013-01-23 10:02:00,23.0,-1.1,30.23,SE,135,4.0,5.0,34,0.00,,,0.00,meteohub,2013-01-23 17:02:00,
2013-01-23 10:07:00,23.7,-0.6,30.23,SE,135,3.0,5.0,34,0.00,,,0.00,meteohub,2013-01-23 17:07:00,
2013-01-23 10:12:00,24.4,-0.6,30.23,SE,135,4.0,4.0,33,0.00,,,0.00,meteohub,2013-01-23 17:12:00,
2013-01-23 10:17:00,25.0,-1.5,30.23,SE,135,4.0,4.0,31,0.00,,,0.00,meteohub,2013-01-23 17:17:00,
2013-01-23 10:22:00,25.7,-0.8,30.23,SE,135,1.0,4.0,31,0.00,,,0.00,meteohub,2013-01-23 17:22:00,
2013-01-23 10:27:00,26.1,-0.4,30.23,SE,135,2.0,4.0,31,0.00,,,0.00,meteohub,2013-01-23 17:27:00,
2013-01-23 10:32:00,26.4,-0.2,30.24,East,90,2.0,4.0,31,0.00,,,0.00,meteohub,2013-01-23 17:32:00,
2013-01-23 10:37:00,27.3,-0.8,30.23,SE,135,1.0,4.0,29,0.00,,,0.00,meteohub,2013-01-23 17:37:00,
2013-01-23 10:42:00,27.9,-1.8,30.23,SE,135,0.0,3.0,27,0.00,,,0.00,meteohub,2013-01-23 17:42:00,
2013-01-23 10:47:00,28.6,0.3,30.23,South,180,1.0,4.0,29,0.00,,,0.00,meteohub,2013-01-23 17:47:00,
2013-01-23 10:52:00,30.0,0.1,30.23,SE,135,1.0,4.0,27,0.00,,,0.00,meteohub,2013-01-23 17:52:00,
2013-01-23 10:57:00,31.1,0.1,30.22,SE,135,3.0,4.0,26,0.00,,,0.00,meteohub,2013-01-23 17:57:00,
2013-01-23 11:02:00,31.6,0.7,30.23,NE,45,1.0,4.0,26,0.00,,,0.00,meteohub,2013-01-23 18:02:00,
2013-01-23 11:07:00,31.6,0.7,30.23,NE,45,1.0,4.0,26,0.00,,,0.00,meteohub,2013-01-23 18:07:00,
2013-01-23 11:12:00,33.6,-0.2,30.23,South,180,2.0,7.0,23,0.00,,,0.00,meteohub,2013-01-23 18:12:00,
2013-01-23 11:17:00,35.2,0.1,30.22,East,90,0.0,7.0,22,0.00,,,0.00,meteohub,2013-01-23 18:17:00,
2013-01-23 11:22:00,36.9,0.5,30.22,SE,135,2.0,7.0,21,0.00,,,0.00,meteohub,2013-01-23 18:22:00,
2013-01-23 11:27:00,38.1,4.5,30.22,NW,315,4.0,4.0,24,0.00,,,0.00,meteohub,2013-01-23 18:27:00,
2013-01-23 11:32:00,39.2,3.6,30.22,East,90,4.0,6.0,22,0.00,,,0.00,meteohub,2013-01-23 18:32:00,
2013-01-23 11:37:00,39.7,3.9,30.22,ESE,113,4.0,6.0,22,0.00,,,0.00,meteohub,2013-01-23 18:37:00,
2013-01-23 11:42:00,40.3,4.5,30.22,SE,135,8.0,8.0,22,0.00,,,0.00,meteohub,2013-01-23 18:42:00,
2013-01-23 11:47:00,41.0,3.0,30.22,South,180,2.0,8.0,20,0.00,,,0.00,meteohub,2013-01-23 18:47:00,
2013-01-23 11:52:00,45.9,5.9,30.22,SE,135,4.0,8.0,19,0.00,,,0.00,meteohub,2013-01-23 18:52:00,
2013-01-23 11:57:00,49.3,10.9,30.21,NW,315,2.0,8.0,21,0.00,,,0.00,meteohub,2013-01-23 18:57:00,
2013-01-23 12:02:00,53.6,11.1,30.21,West,270,2.0,5.0,18,0.00,,,0.00,meteohub,2013-01-23 19:02:00,
2013-01-23 12:07:00,56.1,14.4,30.21,SE,135,4.0,5.0,19,0.00,,,0.00,meteohub,2013-01-23 19:07:00,
2013-01-23 12:12:00,57.7,14.5,30.21,East,90,2.0,5.0,18,0.00,,,0.00,meteohub,2013-01-23 19:12:00,
2013-01-23 12:17:00,57.9,14.7,30.21,South,180,3.0,5.0,18,0.00,,,0.00,meteohub,2013-01-23 19:17:00,
2013-01-23 12:22:00,54.0,10.0,30.21,SW,225,3.0,5.0,17,0.00,,,0.00,meteohub,2013-01-23 19:22:00,
2013-01-23 12:27:00,55.4,13.8,30.20,South,180,2.0,4.0,19,0.00,,,0.00,meteohub,2013-01-23 19:27:00,
2013-01-23 12:32:00,60.4,15.4,30.21,SE,135,3.0,4.0,17,0.00,,,0.00,meteohub,2013-01-23 19:32:00,
2013-01-23 12:37:00,61.3,14.7,30.22,NW,315,5.0,5.0,16,0.00,,,0.00,meteohub,2013-01-23 19:37:00,
2013-01-23 12:42:00,59.9,14.9,30.21,East,90,2.0,10.0,17,0.00,,,0.00,meteohub,2013-01-23 19:42:00,
2013-01-23 12:47:00,58.6,15.3,30.22,North,0,6.0,10.0,18,0.00,,,0.00,meteohub,2013-01-23 19:47:00,
2013-01-23 12:52:00,57.2,14.0,30.21,SE,135,3.0,10.0,18,0.00,,,0.00,meteohub,2013-01-23 19:52:00,
2013-01-23 12:57:00,59.2,14.4,30.21,NW,315,3.0,8.0,17,0.00,,,0.00,meteohub,2013-01-23 19:57:00,
2013-01-23 13:02:00,59.5,14.7,30.22,East,90,4.0,8.0,17,0.00,,,0.00,meteohub,2013-01-23 20:02:00,
2013-01-23 13:07:00,59.5,14.7,30.21,East,90,4.0,9.0,17,0.00,,,0.00,meteohub,2013-01-23 20:07:00,
2013-01-23 13:12:00,51.6,10.8,30.21,NW,315,10.0,10.0,19,0.00,,,0.00,meteohub,2013-01-23 20:12:00,
2013-01-23 13:17:00,49.3,9.9,30.21,NW,315,2.0,10.0,20,0.00,,,0.00,meteohub,2013-01-23 20:17:00,
2013-01-23 13:22:00,48.4,9.1,30.21,SE,135,5.0,10.0,20,0.00,,,0.00,meteohub,2013-01-23 20:22:00,
2013-01-23 13:27:00,47.7,9.7,30.21,South,180,2.0,10.0,21,0.00,,,0.00,meteohub,2013-01-23 20:27:00,
2013-01-23 13:32:00,47.1,9.1,30.21,NE,45,2.0,8.0,21,0.00,,,0.00,meteohub,2013-01-23 20:32:00,
2013-01-23 13:37:00,46.4,8.6,30.21,NE,45,2.0,6.0,21,0.00,,,0.00,meteohub,2013-01-23 20:37:00,
2013-01-23 13:42:00,46.0,4.8,30.21,NW,315,6.0,6.0,18,0.00,,,0.00,meteohub,2013-01-23 20:42:00,
2013-01-23 13:47:00,45.5,4.5,30.20,NE,45,2.0,11.0,18,0.00,,,0.00,meteohub,2013-01-23 20:47:00,
2013-01-23 13:52:00,45.3,4.3,30.20,ESE,113,8.0,11.0,18,0.00,,,0.00,meteohub,2013-01-23 20:52:00,
2013-01-23 13:57:00,45.1,4.1,30.20,East,90,8.0,11.0,18,0.00,,,0.00,meteohub,2013-01-23 20:57:00,
2013-01-23 14:02:00,44.8,3.9,30.20,NE,45,2.0,8.0,18,0.00,,,0.00,meteohub,2013-01-23 21:02:00,
2013-01-23 14:07:00,44.6,3.7,30.21,SE,135,4.0,8.0,18,0.00,,,0.00,meteohub,2013-01-23 21:07:00,
2013-01-23 14:12:00,44.6,3.7,30.20,NE,45,4.0,8.0,18,0.00,,,0.00,meteohub,2013-01-23 21:12:00,
2013-01-23 14:17:00,44.6,3.7,30.20,North,0,1.0,8.0,18,0.00,,,0.00,meteohub,2013-01-23 21:17:00,
2013-01-23 14:22:00,44.4,4.6,30.20,SE,135,4.0,9.0,19,0.00,,,0.00,meteohub,2013-01-23 21:22:00,
2013-01-23 14:27:00,44.2,4.6,30.21,SE,135,2.0,9.0,19,0.00,,,0.00,meteohub,2013-01-23 21:27:00,
2013-01-23 14:32:00,44.2,4.6,30.21,SE,135,1.0,7.0,19,0.00,,,0.00,meteohub,2013-01-23 21:32:00,
2013-01-23 14:37:00,44.4,4.6,30.21,SE,135,4.0,7.0,19,0.00,,,0.00,meteohub,2013-01-23 21:37:00,
2013-01-23 14:42:00,44.1,4.5,30.21,SE,135,2.0,6.0,19,0.00,,,0.00,meteohub,2013-01-23 21:42:00,
2013-01-23 14:47:00,43.7,4.1,30.21,South,180,3.0,6.0,19,0.00,,,0.00,meteohub,2013-01-23 21:47:00,
2013-01-23 14:52:00,43.5,3.9,30.21,West,270,3.0,6.0,19,0.00,,,0.00,meteohub,2013-01-23 21:52:00,
2013-01-23 14:57:00,43.2,3.7,30.21,NE,45,2.0,5.0,19,0.00,,,0.00,meteohub,2013-01-23 21:57:00,
2013-01-23 15:02:00,43.2,3.7,30.21,SE,135,3.0,8.0,19,0.00,,,0.00,meteohub,2013-01-23 22:02:00,
2013-01-23 15:07:00,43.2,3.7,30.21,SE,135,3.0,8.0,19,0.00,,,0.00,meteohub,2013-01-23 22:07:00,
2013-01-23 15:12:00,41.9,3.7,30.21,East,90,2.0,8.0,20,0.00,,,0.00,meteohub,2013-01-23 22:12:00,
2013-01-23 15:17:00,41.2,3.2,30.20,South,180,0.0,4.0,20,0.00,,,0.00,meteohub,2013-01-23 22:17:00,
2013-01-23 15:22:00,40.8,3.9,30.21,SE,135,2.0,4.0,21,0.00,,,0.00,meteohub,2013-01-23 22:22:00,
2013-01-23 15:27:00,40.6,3.7,30.21,SE,135,2.0,4.0,21,0.00,,,0.00,meteohub,2013-01-23 22:27:00,
2013-01-23 15:32:00,40.1,3.2,30.21,SE,135,3.0,4.0,21,0.00,,,0.00,meteohub,2013-01-23 22:32:00,
2013-01-23 15:37:00,39.9,3.2,30.20,SE,135,4.0,5.0,21,0.00,,,0.00,meteohub,2013-01-23 22:37:00,
2013-01-23 15:42:00,39.6,2.8,30.21,North,0,4.0,6.0,21,0.00,,,0.00,meteohub,2013-01-23 22:42:00,
2013-01-23 15:47:00,39.7,3.0,30.21,SW,225,5.0,7.0,21,0.00,,,0.00,meteohub,2013-01-23 22:47:00,
2013-01-23 15:52:00,39.4,2.7,30.21,South,180,4.0,7.0,21,0.00,,,0.00,meteohub,2013-01-23 22:52:00,
2013-01-23 15:57:00,39.0,4.3,30.21,SE,135,2.0,7.0,23,0.00,,,0.00,meteohub,2013-01-23 22:57:00,
2013-01-23 16:02:00,39.2,2.5,30.21,SE,135,2.0,6.0,21,0.00,,,0.00,meteohub,2013-01-23 23:02:00,
2013-01-23 16:07:00,38.7,3.0,30.21,SE,135,4.0,5.0,22,0.00,,,0.00,meteohub,2013-01-23 23:07:00,
2013-01-23 16:12:00,37.9,3.4,30.21,SE,135,3.0,5.0,23,0.00,,,0.00,meteohub,2013-01-23 23:12:00,
2013-01-23 16:17:00,37.4,3.9,30.21,SE,135,2.0,4.0,24,0.00,,,0.00,meteohub,2013-01-23 23:17:00,
2013-01-23 16:22:00,37.0,0.7,30.21,SE,135,0.0,4.0,21,0.00,,,0.00,meteohub,2013-01-23 23:22:00,
2013-01-23 16:27:00,36.5,-0.8,30.21,SE,135,1.0,4.0,20,0.00,,,0.00,meteohub,2013-01-23 23:27:00,
2013-01-23 16:32:00,36.1,0.0,30.21,SE,135,1.0,3.0,21,0.00,,,0.00,meteohub,2013-01-23 23:32:00,
2013-01-23 16:37:00,35.6,-0.6,30.21,East,90,1.0,4.0,21,0.00,,,0.00,meteohub,2013-01-23 23:37:00,
2013-01-23 16:42:00,35.1,2.8,30.21,SE,135,2.0,4.0,25,0.00,,,0.00,meteohub,2013-01-23 23:42:00,
2013-01-23 16:47:00,34.3,4.6,30.21,SE,135,3.0,4.0,28,0.00,,,0.00,meteohub,2013-01-23 23:47:00,
2013-01-23 16:52:00,33.6,5.5,30.21,NW,315,2.0,4.0,30,0.00,,,0.00,meteohub,2013-01-23 23:52:00,
2013-01-23 16:57:00,33.1,5.0,30.21,SE,135,2.0,4.0,30,0.00,,,0.00,meteohub,2013-01-23 23:57:00,
2013-01-23 17:02:00,32.7,5.4,30.22,SE,135,0.0,4.0,31,0.00,,,0.00,meteohub,2013-01-24 00:02:00,
2013-01-23 17:07:00,32.7,5.4,30.22,SE,135,0.0,2.0,31,0.00,,,0.00,meteohub,2013-01-24 00:07:00,
2013-01-23 17:12:00,31.5,5.0,30.22,SE,135,3.0,3.0,32,0.00,,,0.00,meteohub,2013-01-24 00:12:00,
2013-01-23 17:17:00,30.9,5.9,30.22,South,180,0.0,4.0,34,0.00,,,0.00,meteohub,2013-01-24 00:17:00,
2013-01-23 17:22:00,30.4,7.2,30.22,SE,135,2.0,4.0,37,0.00,,,0.00,meteohub,2013-01-24 00:22:00,
2013-01-23 17:27:00,29.8,7.3,30.22,SE,135,0.0,4.0,38,0.00,,,0.00,meteohub,2013-01-24 00:27:00,
2013-01-23 17:32:00,29.1,7.2,30.22,SE,135,2.0,2.0,39,0.00,,,0.00,meteohub,2013-01-24 00:32:00,
2013-01-23 17:37:00,28.6,8.4,30.22,SE,135,1.0,2.0,42,0.00,,,0.00,meteohub,2013-01-24 00:37:00,
2013-01-23 17:42:00,28.2,5.9,30.22,SE,135,2.0,3.0,38,0.00,,,0.00,meteohub,2013-01-24 00:42:00,
2013-01-23 17:47:00,27.9,6.1,30.21,SE,135,2.0,3.0,39,0.00,,,0.00,meteohub,2013-01-24 00:47:00,
2013-01-23 17:52:00,27.7,5.9,30.21,SE,135,3.0,3.0,39,0.00,,,0.00,meteohub,2013-01-24 00:52:00,
2013-01-23 17:57:00,27.3,5.5,30.22,NE,45,2.0,3.0,39,0.00,,,0.00,meteohub,2013-01-24 00:57:00,
2013-01-23 18:02:00,27.3,5.0,30.22,SE,135,2.0,3.0,38,0.00,,,0.00,meteohub,2013-01-24 01:02:00,
2013-01-23 18:07:00,27.0,4.6,30.22,SE,135,4.0,4.0,38,0.00,,,0.00,meteohub,2013-01-24 01:07:00,
2013-01-23 18:12:00,26.8,4.6,30.22,SE,135,2.0,4.0,38,0.00,,,0.00,meteohub,2013-01-24 01:12:00,
2013-01-23 18:17:00,26.6,5.0,30.22,SE,135,0.0,4.0,39,0.00,,,0.00,meteohub,2013-01-24 01:17:00,
2013-01-23 18:22:00,26.4,5.4,30.22,SE,135,1.0,4.0,40,0.00,,,0.00,meteohub,2013-01-24 01:22:00,
2013-01-23 18:27:00,26.2,5.7,30.22,SE,135,2.0,3.0,41,0.00,,,0.00,meteohub,2013-01-24 01:27:00,
2013-01-23 18:32:00,26.1,5.0,30.22,South,180,2.0,4.0,40,0.00,,,0.00,meteohub,2013-01-24 01:32:00,
2013-01-23 18:37:00,26.2,5.7,30.22,SE,135,2.0,4.0,41,0.00,,,0.00,meteohub,2013-01-24 01:37:00,
2013-01-23 18:42:00,26.1,5.0,30.22,SE,135,0.0,4.0,40,0.00,,,0.00,meteohub,2013-01-24 01:42:00,
2013-01-23 18:47:00,26.1,5.0,30.22,SE,135,1.0,3.0,40,0.00,,,0.00,meteohub,2013-01-24 01:47:00,
2013-01-23 18:52:00,26.1,5.0,30.22,SE,135,1.0,3.0,40,0.00,,,0.00,meteohub,2013-01-24 01:52:00,
2013-01-23 18:58:00,26.1,4.5,30.22,South,180,2.0,3.0,39,0.00,,,0.00,meteohub,2013-01-24 01:58:00,
2013-01-23 19:03:00,26.1,4.5,30.22,SE,135,3.0,3.0,39,0.00,,,0.00,meteohub,2013-01-24 02:03:00,
2013-01-23 19:08:00,25.9,5.4,30.21,SE,135,2.0,3.0,41,0.00,,,0.00,meteohub,2013-01-24 02:08:00,
2013-01-23 19:13:00,26.1,5.0,30.21,SE,135,2.0,3.0,40,0.00,,,0.00,meteohub,2013-01-24 02:13:00,
2013-01-23 19:18:00,26.1,5.0,30.22,SE,135,2.0,3.0,40,0.00,,,0.00,meteohub,2013-01-24 02:18:00,
2013-01-23 19:23:00,26.1,5.0,30.22,SE,135,3.0,3.0,40,0.00,,,0.00,meteohub,2013-01-24 02:23:00,
2013-01-23 19:28:00,26.1,5.5,30.22,South,180,1.0,3.0,41,0.00,,,0.00,meteohub,2013-01-24 02:28:00,
2013-01-23 19:33:00,26.1,5.5,30.22,SE,135,2.0,3.0,41,0.00,,,0.00,meteohub,2013-01-24 02:33:00,
2013-01-23 19:38:00,26.2,5.2,30.22,East,90,1.0,3.0,40,0.00,,,0.00,meteohub,2013-01-24 02:38:00,
2013-01-23 19:43:00,26.4,4.8,30.22,SE,135,2.0,3.0,39,0.00,,,0.00,meteohub,2013-01-24 02:43:00,
2013-01-23 19:48:00,26.4,4.8,30.22,SE,135,2.0,3.0,39,0.00,,,0.00,meteohub,2013-01-24 02:48:00,
2013-01-23 19:53:00,26.4,5.4,30.22,SE,135,0.0,3.0,40,0.00,,,0.00,meteohub,2013-01-24 02:53:00,
2013-01-23 19:58:00,26.4,5.9,30.21,SE,135,1.0,3.0,41,0.00,,,0.00,meteohub,2013-01-24 02:58:00,
2013-01-23 20:03:00,26.4,6.4,30.21,SE,135,2.0,3.0,42,0.00,,,0.00,meteohub,2013-01-24 03:03:00,
2013-01-23 20:08:00,26.4,5.9,30.21,SE,135,2.0,3.0,41,0.00,,,0.00,meteohub,2013-01-24 03:08:00,
2013-01-23 20:13:00,26.4,5.9,30.22,SE,135,1.0,3.0,41,0.00,,,0.00,meteohub,2013-01-24 03:13:00,
2013-01-23 20:18:00,26.2,5.7,30.21,SE,135,1.0,3.0,41,0.00,,,0.00,meteohub,2013-01-24 03:18:00,
2013-01-23 20:24:00,26.1,6.1,30.21,SE,135,0.0,3.0,42,0.00,,,0.00,meteohub,2013-01-24 03:24:00,
2013-01-23 20:29:00,26.1,6.1,30.22,SE,135,3.0,3.0,42,0.00,,,0.00,meteohub,2013-01-24 03:29:00,
2013-01-23 20:34:00,25.9,5.9,30.21,SE,135,3.0,3.0,42,0.00,,,0.00,meteohub,2013-01-24 03:34:00,
2013-01-23 20:39:00,26.1,5.5,30.21,SE,135,2.0,3.0,41,0.00,,,0.00,meteohub,2013-01-24 03:39:00,
2013-01-23 20:44:00,26.1,5.0,30.21,West,270,0.0,4.0,40,0.00,,,0.00,meteohub,2013-01-24 03:44:00,
2013-01-23 20:49:00,25.7,4.6,30.21,SE,135,2.0,4.0,40,0.00,,,0.00,meteohub,2013-01-24 03:49:00,
2013-01-23 20:54:00,25.5,4.5,30.21,SE,135,3.0,4.0,40,0.00,,,0.00,meteohub,2013-01-24 03:54:00,
2013-01-23 20:59:00,25.2,4.3,30.21,SE,135,0.0,3.0,40,0.00,,,0.00,meteohub,2013-01-24 03:59:00,
2013-01-23 21:04:00,25.2,4.8,30.21,SE,135,2.0,3.0,41,0.00,,,0.00,meteohub,2013-01-24 04:04:00,
2013-01-23 21:09:00,24.6,4.8,30.20,SW,225,1.0,3.0,42,0.00,,,0.00,meteohub,2013-01-24 04:09:00,
2013-01-23 21:14:00,24.6,4.3,30.21,SE,135,1.0,2.0,41,0.00,,,0.00,meteohub,2013-01-24 04:14:00,
2013-01-23 21:19:00,24.4,4.6,30.20,SE,135,2.0,2.0,42,0.00,,,0.00,meteohub,2013-01-24 04:19:00,
2013-01-23 21:24:00,24.3,5.0,30.20,SE,135,2.0,2.0,43,0.00,,,0.00,meteohub,2013-01-24 04:24:00,
2013-01-23 21:30:00,24.1,4.8,30.20,SE,135,2.0,2.0,43,0.00,,,0.00,meteohub,2013-01-24 04:30:00,
2013-01-23 21:35:00,23.9,4.6,30.20,SE,135,0.0,4.0,43,0.00,,,0.00,meteohub,2013-01-24 04:35:00,
2013-01-23 21:40:00,23.9,3.6,30.20,SE,135,2.0,4.0,41,0.00,,,0.00,meteohub,2013-01-24 04:40:00,
2013-01-23 21:45:00,23.9,4.1,30.20,SE,135,2.0,4.0,42,0.00,,,0.00,meteohub,2013-01-24 04:45:00,
2013-01-23 21:50:00,23.9,4.1,30.20,East,90,2.0,3.0,42,0.00,,,0.00,meteohub,2013-01-24 04:50:00,
2013-01-23 21:55:00,24.1,4.3,30.20,SE,135,2.0,3.0,42,0.00,,,0.00,meteohub,2013-01-24 04:55:00,
2013-01-23 22:02:00,24.3,3.9,30.21,SE,135,2.0,4.0,41,0.00,,,0.00,meteohub,2013-01-24 05:02:00,
2013-01-23 22:03:00,24.3,3.9,30.20,SE,135,2.0,4.0,41,0.00,,,0.00,meteohub,2013-01-24 05:03:00,
2013-01-23 22:04:00,24.3,3.9,30.20,SE,135,3.0,4.0,41,0.00,,,0.00,meteohub,2013-01-24 05:04:00,
2013-01-23 22:09:00,24.3,4.5,30.20,East,90,2.0,3.0,42,0.00,,,0.00,meteohub,2013-01-24 05:09:00,
2013-01-23 22:14:00,24.3,3.9,30.19,NE,45,0.0,4.0,41,0.00,,,0.00,meteohub,2013-01-24 05:14:00,
2013-01-23 22:19:00,24.4,3.6,30.20,SE,135,2.0,4.0,40,0.00,,,0.00,meteohub,2013-01-24 05:19:00,
2013-01-23 22:24:00,24.4,3.6,30.20,SE,135,2.0,4.0,40,0.00,,,0.00,meteohub,2013-01-24 05:24:00,
2013-01-23 22:29:00,24.4,3.6,30.19,SE,135,2.0,4.0,40,0.00,,,0.00,meteohub,2013-01-24 05:29:00,
2013-01-23 22:34:00,24.6,3.7,30.19,SE,135,2.0,4.0,40,0.00,,,0.00,meteohub,2013-01-24 05:34:00,
2013-01-23 22:39:00,24.6,3.7,30.19,NW,315,1.0,4.0,40,0.00,,,0.00,meteohub,2013-01-24 05:39:00,
2013-01-23 22:44:00,24.6,4.3,30.20,West,270,1.0,3.0,41,0.00,,,0.00,meteohub,2013-01-24 05:44:00,
2013-01-23 22:49:00,24.4,4.6,30.19,NE,45,2.0,3.0,42,0.00,,,0.00,meteohub,2013-01-24 05:49:00,
2013-01-23 22:55:00,24.6,3.7,30.20,SE,135,4.0,4.0,40,0.00,,,0.00,meteohub,2013-01-24 05:55:00,
2013-01-23 23:00:00,24.6,3.7,30.20,SE,135,3.0,3.0,40,0.00,,,0.00,meteohub,2013-01-24 06:00:00,
2013-01-23 23:05:00,24.6,3.7,30.19,SE,135,3.0,4.0,40,0.00,,,0.00,meteohub,2013-01-24 06:05:00,
2013-01-23 23:10:00,24.4,4.1,30.20,SE,135,4.0,4.0,41,0.00,,,0.00,meteohub,2013-01-24 06:10:00,
2013-01-23 23:15:00,24.4,4.1,30.19,East,90,2.0,4.0,41,0.00,,,0.00,meteohub,2013-01-24 06:15:00,
2013-01-23 23:20:00,24.3,4.5,30.19,SE,135,1.0,4.0,42,0.00,,,0.00,meteohub,2013-01-24 06:20:00,
2013-01-23 23:25:00,24.1,4.3,30.19,SE,135,3.0,4.0,42,0.00,,,0.00,meteohub,2013-01-24 06:25:00,
2013-01-23 23:30:00,23.9,3.6,30.19,South,180,2.0,4.0,41,0.00,,,0.00,meteohub,2013-01-24 06:30:00,
2013-01-23 23:35:00,23.9,4.1,30.19,SE,135,3.0,3.0,42,0.00,,,0.00,meteohub,2013-01-24 06:35:00,
2013-01-23 23:40:00,23.9,4.1,30.19,SE,135,1.0,3.0,42,0.00,,,0.00,meteohub,2013-01-24 06:40:00,
2013-01-23 23:45:00,23.7,3.9,30.19,SE,135,4.0,4.0,42,0.00,,,0.00,meteohub,2013-01-24 06:45:00,
2013-01-23 23:50:00,23.7,3.9,30.19,SE,135,1.0,4.0,42,0.00,,,0.00,meteohub,2013-01-24 06:50:00,
2013-01-23 23:55:00,23.7,3.9,30.18,SE,135,4.0,4.0,42,0.00,,,0.00,meteohub,2013-01-24 06:55:00,